Dewpoint
69 72 72 73 73 73 73 73 72 73 73 73 73 73 73 74 74 74 74 74 75 75 75 75 75 74 73 72 72 72 71 71 72 72 72 73 72 72 72 72 71 70 72
70 72 72 73 73 73 73 73 72 73 73 73 73 73 73 73 73 74 74 74 74 75 74 74 74 73 73 73 71 72 71 71 71 71 72 72 72 72 72 72 71 71 72
69 71 72 72 73 73 73 73 73 73 73 73 73 73 73 73 73 73 73 74 75 75 73 73 73 73 73 73 71 71 71 71 71 71 71 70 71 72 71 72 72 72 72
69 70 71 72 73 73 72 72 73 73 73 73 73 73 73 73 73 73 73 73 74 74 73 73 72 73 73 72 71 70 70 71 70 71 69 70 69 72 71 71 72 72 72
69 70 70 71 72 73 72 72 72 73 73 73 73 73 73 73 73 73 72 73 74 75 73 72 72 74 72 71 70 70 70 70 70 70 68 68 69 71 71 72 72 72 71
69 68 70 70 71 72 73 72 72 72 72 72 73 73 73 73 73 73 72 73 74 75 75 73 73 73 71 71 70 70 69 69 69 68 68 68 69 71 71 71 70 71 70
69 68 70 69 71 72 72 72 72 72 72 72 72 73 73 73 73 73 72 72 73 74 74 74 73 72 71 71 70 69 69 69 68 67 66 63 63 70 70 71 71 71 71
69 70 70 70 71 71 71 71 71 71 71 71 72 72 73 72 72 72 72 72 72 72 72 72 71 71 71 70 70 69 68 68 68 66 67 62 62 67 69 71 70 70 70
70 69 70 70 71 70 69 70 70 70 71 71 71 71 72 71 71 71 71 72 72 71 71 71 71 70 70 70 69 68 67 68 66 67 67 65 64 66 68 71 70 70 70
70 69 69 69 70 70 69 69 69 70 70 70 70 70 70 70 71 71 70 71 71 71 71 71 70 70 69 68 68 67 67 67 67 66 67 66 67 68 69 71 70 70 70
69 69 68 69 69 69 69 69 70 70 70 70 70 70 69 71 71 71 70 70 70 69 70 70 70 69 68 68 67 67 67 67 67 67 66 67 68 68 70 70 70 69 69
66 68 69 69 69 68 69 69 69 70 70 71 71 71 71 71 70 71 70 69 69 69 69 69 69 68 68 68 67 67 66 67 67 66 66 66 68 69 67 70 69 69 68
43 67 69 69 69 69 69 68 68 68 68 69 70 70 70 69 71 70 70 70 69 69 69 69 68 68 68 67 66 66 66 66 66 66 66 66 68 69 68 70 70 69 67
53 66 68 68 68 68 68 68 68 68 67 68 68 69 69 69 70 70 70 69 68 69 68 69 69 68 67 67 67 66 66 66 66 66 65 65 66 69 70 69 69 69 68
50 60 64 64 62 65 68 69 70 69 68 67 68 68 69 69 69 69 69 69 68 68 69 68 68 67 67 67 67 66 66 66 66 66 65 64 64 67 68 69 69 69 69
48 50 53 54 55 55 59 59 64 67 67 67 68 68 68 68 68 68 68 68 68 68 68 68 68 67 67 67 66 66 66 66 66 65 64 64 63 64 66 68 69 69 69
49 50 52 53 53 53 54 56 59 60 62 65 68 67 67 68 68 67 67 67 68 68 68 68 67 67 67 66 66 66 66 66 65 64 64 63 63 62 64 66 67 68 69
49 49 49 49 50 50 51 52 53 56 58 59 61 64 67 68 68 68 68 67 67 68 68 68 67 66 66 66 65 65 64 64 64 64 63 63 62 62 61 63 65 67 68
47 47 47 47 47 48 49 50 51 52 53 55 56 57 62 65 67 68 67 67 66 66 67 67 66 66 65 65 65 64 64 64 64 64 63 63 62 61 61 61 62 64 65
45 46 46 46 46 47 47 48 49 50 50 52 52 53 54 56 60 65 66 66 66 65 65 66 66 65 64 64 64 63 63 64 64 64 63 63 62 62 63 62 61 62 62
44 44 44 44 45 44 45 45 46 46 46 48 49 51 52 55 56 55 63 66 65 65 64 64 64 63 63 64 61 59 60 63 63 63 63 63 62 62 63 62 61 61 61
43 42 42 42 42 42 43 45 45 44 47 46 48 48 49 50 52 53 55 60 65 65 64 63 64 63 64 64 62 61 58 59 61 62 63 63 62 63 62 62 62 61 61
41 41 41 41 41 41 42 42 41 42 43 44 43 44 46 47 48 50 52 54 56 64 65 64 63 62 60 61 61 59 55 55 56 58 61 61 61 61 61 60 61 62 62
39 40 40 40 39 40 40 40 39 39 39 40 41 42 43 45 47 49 51 53 55 58 62 64 63 62 59 56 56 58 58 57 53 53 57 61 61 60 60 60 59 61 61
38 38 37 37 37 37 38 39 39 38 38 39 40 41 42 44 46 48 49 50 52 54 58 63 61 57 57 55 54 56 56 58 57 54 51 57 60 60 60 60 59 60 60
37 36 36 35 34 36 37 37 37 37 37 38 39 40 42 44 45 47 48 50 52 55 58 61 62 60 57 56 55 56 57 57 55 54 51 54 55 58 60 59 59 59 60
Lifted_Index
-4 -5 -5 -5 -5 -5 -5 -5 -4 -4 -4 -4 -4 -4 -4 -4 -4 -4 -5 -5 -5 -6 -6 -6 -5 -5 -5 -4 -3 -2 -3 -3 -3 -3 -4 -4 -5 -5 -5 -5 -5 -6 -6
-5 -5 -5 -5 -5 -5 -5 -5 -4 -4 -4 -4 -4 -4 -4 -4 -4 -4 -5 -5 -5 -6 -6 -5 -5 -5 -5 -4 -3 -2 -3 -3 -3 -3 -3 -4 -4 -4 -5 -5 -5 -6 -6
-5 -5 -5 -5 -5 -5 -5 -5 -5 -5 -5 -4 -4 -4 -4 -4 -4 -4 -5 -5 -6 -6 -6 -5 -5 -5 -5 -4 -3 -2 -3 -3 -3 -3 -3 -4 -4 -4 -5 -5 -6 -6 -6
-5 -5 -5 -5 -5 -5 -5 -5 -5 -5 -5 -5 -5 -5 -4 -4 -4 -4 -5 -5 -6 -6 -6 -5 -5 -5 -5 -4 -3 -3 -3 -3 -3 -3 -3 -3 -4 -5 -5 -6 -6 -6 -6
-6 -5 -5 -5 -5 -5 -5 -5 -5 -5 -5 -5 -5 -5 -5 -5 -5 -4 -5 -5 -6 -6 -6 -5 -5 -5 -5 -4 -3 -3 -2 -3 -3 -3 -3 -3 -4 -5 -5 -5 -5 -5 -6
-6 -6 -5 -5 -5 -5 -5 -5 -5 -5 -5 -5 -5 -5 -5 -5 -5 -5 -5 -5 -5 -6 -6 -6 -6 -5 -5 -4 -4 -3 -2 -2 -2 -2 -2 -2 -3 -4 -5 -5 -5 -5 -5
-6 -6 -6 -6 -5 -5 -5 -5 -5 -5 -5 -5 -5 -5 -5 -5 -5 -5 -5 -5 -5 -6 -6 -6 -6 -5 -5 -4 -4 -3 -2 -2 -2 -2 -2 -2 -2 -3 -4 -4 -5 -5 -5
-6 -6 -6 -6 -5 -5 -5 -5 -5 -5 -5 -5 -5 -5 -5 -5 -5 -5 -5 -5 -5 -5 -5 -5 -5 -5 -5 -4 -4 -3 -3 -2 -2 -2 -1 -1 -1 -2 -3 -4 -5 -5 -5
-6 -6 -6 -6 -5 -5 -4 -4 -5 -5 -5 -5 -5 -5 -5 -5 -5 -5 -5 -4 -4 -5 -5 -5 -5 -5 -5 -4 -4 -3 -3 -2 -2 -2 -1 -1 -1 -1 -3 -4 -5 -4 -5
-6 -6 -6 -6 -5 -5 -5 -4 -4 -5 -5 -5 -5 -5 -5 -5 -5 -4 -4 -4 -4 -5 -5 -5 -5 -5 -4 -4 -3 -3 -3 -2 -2 -2 -1 -1 -1 -2 -3 -4 -4 -4 -4
-6 -6 -6 -6 -6 -6 -5 -5 -4 -4 -5 -5 -5 -5 -5 -5 -5 -4 -4 -4 -4 -4 -5 -5 -5 -5 -4 -4 -3 -3 -3 -2 -2 -2 -2 -2 -2 -3 -3 -4 -4 -4 -4
-3 -4 -6 -6 -6 -6 -5 -5 -4 -4 -5 -5 -5 -5 -5 -5 -5 -5 -5 -4 -4 -4 -4 -4 -5 -5 -5 -4 -4 -3 -3 -2 -2 -2 -2 -2 -2 -3 -3 -4 -4 -3 -3
0 -3 -5 -6 -6 -5 -5 -5 -4 -4 -4 -4 -5 -5 -5 -5 -5 -5 -5 -5 -5 -4 -4 -4 -5 -5 -5 -5 -4 -4 -3 -2 -2 -2 -1 -2 -2 -3 -3 -4 -4 -3 -3
2 -2 -5 -5 -5 -5 -5 -5 -4 -4 -4 -4 -4 -4 -5 -5 -5 -5 -5 -5 -5 -4 -4 -4 -4 -5 -5 -5 -4 -4 -3 -3 -2 -2 -2 -2 -2 -3 -3 -4 -4 -3 -3
1 -1 -4 -4 -4 -5 -5 -5 -5 -5 -4 -4 -4 -4 -4 -4 -5 -5 -5 -6 -5 -5 -4 -4 -4 -4 -4 -4 -4 -4 -4 -4 -3 -3 -2 -2 -2 -2 -3 -3 -3 -3 -3
3 1 -0 -0 -1 -2 -4 -4 -4 -5 -5 -5 -5 -4 -4 -4 -5 -5 -6 -6 -6 -5 -5 -5 -5 -5 -4 -4 -5 -5 -5 -4 -4 -3 -3 -3 -2 -2 -2 -3 -3 -3 -3
5 4 4 4 3 2 -0 -2 -3 -3 -4 -4 -5 -5 -5 -5 -5 -5 -5 -6 -6 -6 -6 -5 -5 -5 -5 -5 -5 -5 -5 -5 -4 -4 -3 -3 -3 -2 -2 -2 -2 -3 -3
6 6 5 5 5 4 3 2 0 -1 -2 -3 -3 -4 -4 -5 -5 -5 -5 -5 -5 -6 -6 -6 -6 -6 -5 -5 -6 -6 -6 -5 -5 -4 -3 -3 -3 -2 -2 -1 -1 -2 -3
6 6 6 5 5 6 6 6 5 3 1 -1 -2 -2 -3 -3 -4 -4 -5 -4 -5 -5 -6 -6 -6 -6 -5 -6 -6 -7 -6 -6 -5 -4 -4 -3 -3 -2 -2 -1 -1 -1 -2
6 6 6 6 6 7 8 8 8 7 5 3 2 0 -1 -2 -3 -3 -4 -4 -4 -4 -4 -5 -5 -6 -6 -6 -6 -6 -7 -6 -5 -4 -4 -3 -3 -2 -1 -1 -0 -0 -1
6 6 6 6 7 8 8 9 9 9 8 7 6 4 2 0 -1 -2 -3 -3 -4 -4 -4 -4 -5 -5 -5 -5 -5 -5 -6 -6 -5 -4 -4 -3 -3 -2 -1 -1 -0 0 0
4 5 5 7 8 8 9 9 9 9 9 8 8 7 6 4 2 0 -1 -2 -3 -3 -4 -4 -4 -4 -4 -4 -4 -4 -4 -4 -5 -4 -3 -3 -2 -1 -1 -0 0 0 1
3 5 6 7 8 8 8 9 9 8 8 8 8 7 7 6 5 4 2 0 -1 -2 -3 -4 -4 -4 -3 -3 -3 -2 -1 -2 -3 -3 -3 -2 -2 -1 -1 -0 0 0 1
5 6 7 8 8 9 9 9 8 8 8 8 7 7 6 6 6 6 5 3 1 -0 -2 -3 -4 -4 -3 -3 -2 -1 0 -0 -1 -2 -2 -2 -1 -1 -1 -0 0 0 1
7 7 8 9 9 9 9 9 8 8 8 7 7 6 5 5 5 5 5 5 4 2 0 -2 -3 -3 -3 -2 -2 -1 0 0 -1 -1 -1 -1 -1 -1 -1 -0 0 1 1
8 8 9 9 9 9 10 9 8 8 8 7 7 6 5 4 4 4 5 5 5 4 2 -1 -3 -3 -3 -2 -2 -1 -1 -0 -1 -1 -1 -1 -1 -1 -1 -0 0 1 1